STARLINK-34067, 64115

Orbit data source: Space-Track

STARLINK-34067, 64115 is a payload satellite owned by SpaceX/Seattle (US) in LEO that was launched on Fri, 23 May 2025 UTC via an FALCON 9 launch vehicle from the Air Force Western Test Range (AFWTR). Payload-class satellites include a variety of spacecraft equipped with specific instruments for various scientific and technological missions. These include communications satellites like Starlink; space stations such as the ISS; scientific satellites like the Hubble; Earth observation satellites from companies like Planet Labs, Umbra, and HawkEye 360; GPS; miniature CubeSats for education and research; and military/defense satellites.

Loading next visibility...
Identifier
64115, 2025-110V
Orbit
LEO
Country
Flag of USUS
Related business
Manufacturer
SpaceX/Seattle
Mission
Operational Commercial Communications
Bus & Motor
STARLINK V2MO, Unknown motor
Mass
575 kg wet, ~530 kg dry
Launch date (UTC)
2025-05-23 (1 year ago)
Launch vehicle
FALCON 9
Launch site
Air Force Western Test Range (AFWTR)
Object type
Payload
Rocket body
Debris
Shape & HBR
Box + 2 Pan, 17.7 m
Radar Cross Section
36.964 m², Large (>1 m²)

Expand to show TLE details & history
Last TLE update: 1 day ago

TLE from 1 day ago
0 STARLINK-34067
1 64115U 25110V   26170.55131996  .00020561  00000-0  63350-3 0  9995
2 64115  53.1628 272.5257 0001415  39.2993 320.8112 15.33613154 61499
Epoch: 2026-06-19T13:13Z
TLE epoch observation values (Epoch: 2026-06-19T13:13:54.044Z)
Latitude
-0.00001°
Longitude
166.27184°
Altitude
465.194 km
Speed
7.635 km/s
True Right ascension
18h 10m 06s
True Declination
0° 00' 00"
Sunlit
Object was in full shadow at epoch
Visualization orbit readout
Latitude
Unknown
Longitude
Unknown
Altitude
Unknown
Speed
Unknown
Apparent Right ascension
Unknown
Apparent Declination
Unknown
Sunlit
N/A
Visualization observer readout
Local Sidereal Time
07:12:53
Azimuth
Unknown
Elevation
Unknown
Doppler factor
Unknown
Orbital elements
Apogee altitude
466.268 km
Perigee altitude
464.331 km
Semi-major axis
6,843.436 km
Eccentricity
0.00014
Inclination
53.1628°
RAAN
272.5257°
Arg. of periapsis
39.2993°
True anomaly
320.80095°
Mean anomaly
320.8112°
Eccentric anomaly
320.80608°
Mean motion
3.83382 °/min
Orbital period
93.9 mins
BSTAR
0.0006335
Loading maneuver chart data...
Computing Atmospheric mass density...
Loading historical data...
Loading historical data...
Loading historical data...
Loading historical data...
Loading historical data...
Loading historical data...
Loading historical data...

Documentation

Showing up to 5 results
|